This demonstration page uses our WeatherBlox Daily Observations layout. Learn more.

Left ArrowRight Arrow

41.86663, -103.66717

Hourly Observations for May 26, 2021

Temp ( °F °C ) Dew Point ( °F °C ) Humidity (%) Winds ( mph kmh ) Pressure ( in mb ) Visibility ( mi km ) Precip ( " mm )
12:53 am 00:53 Clear 56 13.3 45 7.2 67 67 E 7 11 30.01 1016 10 16 0.00 0.00
1:53 am 01:53 Mostly Clear 57 13.9 45 7.2 64 64 ENE 13 20 29.99 1016 10 16 0.00 0.00
2:53 am 02:53 Partly Cloudy 53 11.7 44 6.7 72 72 ENE 14 22 30.00 1016 10 16 0.00 0.00
3:53 am 03:53 Clear 54 12.2 44 6.7 69 69 E 13 20 29.99 1016 10 16 0.00 0.00
4:53 am 04:53 Clear 52 11.1 44 6.7 75 75 ESE 8 13 30.00 1016 10 16 0.00 0.00
5:53 am 05:53 Sunny 51 10.6 44 6.7 77 77 ESE 9 15 30.01 1016 10 16 0.00 0.00
6:53 am 06:53 Mostly Sunny 54 12.2 45 7.2 72 72 ESE 9 15 30.01 1016 10 16 0.00 0.00
7:53 am 07:53 Partly Cloudy 56 13.3 46 7.8 70 70 ESE 20 31 30.00 1016 10 16 0.00 0.00
8:53 am 08:53 Mostly Sunny 61 16.1 48 8.9 63 63 ESE 15 24 30.01 1016 10 16 0.00 0.00
9:53 am 09:53 Sunny 63 17.2 50 10 63 63 ESE 17 28 29.98 1015 10 16 0.00 0.00
10:53 am 10:53 Sunny 68 20 53 11.7 59 59 ESE 18 30 29.94 1014 10 16 0.00 0.00
11:53 am 11:53 Sunny 72 22.2 55 12.8 55 55 ESE 18 30 29.91 1013 10 16 0.00 0.00
12:53 pm 12:53 Mostly Sunny 78 25.6 67 19.4 69 69 SE 22 35 29.87 1011 10 16 0.00 0.00
1:53 pm 13:53 Mostly Cloudy 76 24.4 64 17.8 67 67 SE 20 31 29.85 1011 10 16 0.00 0.00
2:53 pm 14:53 Mostly Sunny 76 24.4 62 16.7 62 62 SSE 17 28 29.82 1010 10 16 0.00 0.00
3:53 pm 15:53 Partly Cloudy 80 26.7 68 20 67 67 S 17 28 29.79 1009 10 16 0.00 0.00
4:17 pm 16:17 Partly Cloudy with Nearby Thunderstorms 76 24.4 64 17.8 67 67 S 17 28 29.64 1004 10 16 0.00 0.00
4:32 pm 16:32 Sunny 78 25.6 68 20 71 71 S 21 33 29.62 1003 10 16 0.00 0.00
4:53 pm 16:53 Mostly Sunny 80 26.7 69 20.6 69 69 S 15 24 29.75 1007 10 16 0.00 0.00
5:53 pm 17:53 Sunny 81 27.2 71 21.7 72 72 SW 15 24 29.73 1007 10 16 0.00 0.00
6:53 pm 18:53 undefined 77 25 68 20 74 74 SE 20 31 29.72 1006 10 16 0.00 0.00
7:53 pm 19:53 Mostly Cloudy 71 21.7 54 12.2 55 55 NNW 22 35 29.81 1009 10 16 0.00 0.00
8:53 pm 20:53 Mostly Clear 58 14.4 50 10 75 75 N 28 44 29.86 1011 10 16 0.00 0.00
9:53 pm 21:53 Clear 56 13.3 50 10 81 81 N 12 19 29.91 1013 10 16 0.00 0.00
10:53 pm 22:53 Clear 53 11.7 50 10 89 89 NW 13 20 29.96 1015 10 16 0.00 0.00
11:08 pm 23:08 Mostly Cloudy 53 11.7 50 10 89 89 N 12 19 29.98 1015 10 16 0.00 0.00
11:46 pm 23:46 Cloudy 53 11.7 50 10 89 89 N 9 15 30.00 1016 10 16 0.00 0.00
11:53 pm 23:53 Cloudy 53 11.7 50 10 89 89 N 8 13 29.98 1015 10 16 0.00 0.00

Powered by AerisWeather